• En España
  • Lista de países
  • Para 7 días
  • Temperatura del agua
  • Mapa Satelital
  • El tiempo en el mapa
  • Informadores
  • user-avatar
    Iniciar sesión

    Tiempo cada hora Myaskovo

    Hoy, 23 Septiembre, Domingo

    Tiempo Temperatura Precipitaciones Viento Presión Humedad
    00:00 +10°C° 1.1 mm 3 mps 732 mmHg 90%
    01:00 +9°C° 1.1 mm 3 mps 732 mmHg 92%
    02:00 +9°C° 1.1 mm 3 mps 732 mmHg 93%
    03:00 +9°C° 0.9 mm 3 mps 732 mmHg 94%
    04:00 +9°C° 0.9 mm 3 mps 732 mmHg 94%
    05:00 +9°C° 0.9 mm 3 mps 732 mmHg 94%
    06:00 +9°C° 0.1 mm 3 mps 731 mmHg 93%
    07:00 +9°C° 0.1 mm 3 mps 731 mmHg 91%
    08:00 +9°C° 0.1 mm 3 mps 731 mmHg 90%
    09:00 +10°C° 0 mm 4 mps 731 mmHg 83%
    10:00 +11°C° 0 mm 4 mps 731 mmHg 75%
    11:00 +12°C° 0 mm 4 mps 731 mmHg 68%
    12:00 +12°C° 0.1 mm 5 mps 731 mmHg 67%
    13:00 +12°C° 0.1 mm 5 mps 731 mmHg 66%
    14:00 +13°C° 0.1 mm 5 mps 731 mmHg 65%
    15:00 +12°C° 0.1 mm 4 mps 731 mmHg 69%
    16:00 +11°C° 0.1 mm 3 mps 731 mmHg 73%
    17:00 +10°C° 0.1 mm 3 mps 731 mmHg 77%
    18:00 +9°C° 0 mm 3 mps 731 mmHg 81%
    19:00 +9°C° 0 mm 3 mps 731 mmHg 85%
    20:00 +8°C° 0 mm 3 mps 731 mmHg 89%
    21:00 +7°C° 0 mm 3 mps 731 mmHg 89%
    22:00 +7°C° 0 mm 3 mps 731 mmHg 90%
    23:00 +7°C° 0 mm 3 mps 731 mmHg 90%

    Mañana, 24 Septiembre, Lunes

    Tiempo Temperatura Precipitaciones Viento Presión Humedad
    00:00 +7°C° 0 mm 3 mps 731 mmHg 92%
    01:00 +5°C° 0 mm 3 mps 731 mmHg 93%
    02:00 +5°C° 0 mm 3 mps 731 mmHg 94%
    03:00 +5°C° 0 mm 3 mps 731 mmHg 95%
    04:00 +6°C° 0 mm 2 mps 731 mmHg 96%
    05:00 +5°C° 0 mm 2 mps 731 mmHg 97%
    06:00 +6°C° 0 mm 2 mps 731 mmHg 93%
    07:00 +7°C° 0 mm 2 mps 731 mmHg 89%
    08:00 +8°C° 0 mm 2 mps 730 mmHg 85%
    09:00 +9°C° 0.1 mm 2 mps 730 mmHg 84%
    10:00 +9°C° 0.1 mm 2 mps 730 mmHg 83%
    11:00 +10°C° 0.1 mm 2 mps 729 mmHg 81%
    12:00 +9°C° 1.1 mm 2 mps 729 mmHg 85%
    13:00 +9°C° 1.1 mm 2 mps 728 mmHg 89%
    14:00 +8°C° 1.1 mm 2 mps 727 mmHg 93%
    15:00 +8°C° 1.5 mm 2 mps 727 mmHg 93%
    16:00 +8°C° 1.5 mm 3 mps 726 mmHg 94%
    17:00 +7°C° 1.5 mm 3 mps 725 mmHg 95%
    18:00 +7°C° 1.6 mm 3 mps 725 mmHg 95%
    19:00 +7°C° 1.6 mm 3 mps 724 mmHg 95%
    20:00 +6°C° 1.6 mm 4 mps 723 mmHg 95%
    21:00 +6°C° 1.4 mm 4 mps 723 mmHg 95%
    22:00 +6°C° 1.4 mm 5 mps 722 mmHg 94%
    23:00 +6°C° 1.4 mm 5 mps 722 mmHg 94%

    Pasado mañana, 25 Septiembre, Martes

    Tiempo Temperatura Precipitaciones Viento Presión Humedad
    00:00 +6°C° 1.1 mm 5 mps 722 mmHg 93%
    01:00 +5°C° 1.1 mm 6 mps 722 mmHg 92%
    02:00 +5°C° 1.1 mm 6 mps 723 mmHg 92%
    03:00 +5°C° 0.7 mm 6 mps 723 mmHg 91%
    04:00 +5°C° 0.7 mm 7 mps 723 mmHg 90%
    05:00 +4°C° 0.7 mm 7 mps 724 mmHg 90%
    06:00 +4°C° 0.4 mm 7 mps 725 mmHg 89%
    07:00 +4°C° 0.4 mm 7 mps 725 mmHg 87%
    08:00 +4°C° 0.4 mm 7 mps 726 mmHg 86%
    09:00 +4°C° 0.2 mm 7 mps 727 mmHg 83%
    10:00 +4°C° 0.2 mm 7 mps 728 mmHg 81%
    11:00 +5°C° 0.2 mm 7 mps 729 mmHg 78%
    12:00 +5°C° 0.1 mm 7 mps 729 mmHg 77%
    13:00 +5°C° 0.1 mm 7 mps 730 mmHg 76%
    14:00 +5°C° 0.1 mm 7 mps 731 mmHg 75%
    15:00 +4°C° 0.1 mm 7 mps 732 mmHg 76%
    16:00 +4°C° 0.1 mm 6 mps 732 mmHg 77%
    17:00 +4°C° 0.1 mm 6 mps 733 mmHg 78%
    18:00 +3°C° 0 mm 6 mps 734 mmHg 76%
    19:00 +3°C° 0 mm 6 mps 735 mmHg 74%
    20:00 +2°C° 0 mm 5 mps 736 mmHg 72%
    21:00 +2°C° 0 mm 5 mps 736 mmHg 71%
    22:00 +1°C° 0 mm 5 mps 737 mmHg 70%
    23:00 +1°C° 0 mm 4 mps 737 mmHg 70%

    26 Septiembre, Miércoles

    Tiempo Temperatura Precipitaciones Viento Presión Humedad
    00:00 0°C° 0 mm 4 mps 738 mmHg 72%
    01:00 0°C° 0 mm 4 mps 738 mmHg 74%
    02:00 0°C° 0 mm 4 mps 739 mmHg 76%
    03:00 0°C° 0 mm 4 mps 739 mmHg 79%
    04:00 0°C° 0 mm 4 mps 739 mmHg 83%
    05:00 0°C° 0 mm 4 mps 739 mmHg 86%
    06:00 +1°C° 0 mm 4 mps 739 mmHg 82%
    07:00 +3°C° 0 mm 4 mps 739 mmHg 79%
    08:00 +2°C° 0 mm 5 mps 740 mmHg 76%
    09:00 +5°C° 0 mm 5 mps 739 mmHg 72%
    10:00 +6°C° 0 mm 4 mps 739 mmHg 68%
    11:00 +8°C° 0 mm 4 mps 739 mmHg 64%
    12:00 +8°C° 0 mm 4 mps 739 mmHg 66%
    13:00 +8°C° 0 mm 5 mps 738 mmHg 68%
    14:00 +8°C° 0 mm 5 mps 738 mmHg 70%
    15:00 +8°C° 0.4 mm 5 mps 737 mmHg 76%
    16:00 +7°C° 0.4 mm 5 mps 736 mmHg 82%
    17:00 +7°C° 0.4 mm 5 mps 735 mmHg 88%
    18:00 +7°C° 0.7 mm 6 mps 734 mmHg 88%
    19:00 +5°C° 0.7 mm 6 mps 733 mmHg 89%
    20:00 +5°C° 0.7 mm 7 mps 732 mmHg 89%
    21:00 +5°C° 0.7 mm 7 mps 731 mmHg 89%
    22:00 +5°C° 0.7 mm 7 mps 730 mmHg 88%
    23:00 +5°C° 0.7 mm 8 mps 729 mmHg 88%

    27 Septiembre, Jueves

    Tiempo Temperatura Precipitaciones Viento Presión Humedad
    00:00 +5°C° 0.6 mm 8 mps 728 mmHg 88%
    01:00 +6°C° 0.6 mm 8 mps 727 mmHg 88%
    02:00 +6°C° 0.6 mm 8 mps 727 mmHg 88%
    03:00 +6°C° 0.6 mm 7 mps 727 mmHg 88%
    04:00 +7°C° 0.6 mm 6 mps 727 mmHg 89%
    05:00 +7°C° 0.6 mm 5 mps 727 mmHg 89%
    06:00 +7°C° 0 mm 5 mps 727 mmHg 86%
    07:00 +7°C° 0 mm 5 mps 727 mmHg 83%
    08:00 +7°C° 0 mm 4 mps 727 mmHg 81%
    09:00 +8°C° 0.1 mm 5 mps 727 mmHg 75%
    10:00 +9°C° 0.1 mm 5 mps 727 mmHg 69%
    11:00 +10°C° 0.1 mm 5 mps 726 mmHg 63%
    12:00 +9°C° 0.3 mm 5 mps 726 mmHg 66%
    13:00 +9°C° 0.3 mm 5 mps 726 mmHg 70%
    14:00 +9°C° 0.3 mm 5 mps 725 mmHg 73%
    15:00 +8°C° 0.2 mm 5 mps 725 mmHg 75%
    16:00 +8°C° 0.2 mm 4 mps 725 mmHg 78%
    17:00 +7°C° 0.2 mm 4 mps 725 mmHg 81%
    18:00 +7°C° 0.3 mm 4 mps 725 mmHg 82%
    19:00 +6°C° 0.3 mm 4 mps 725 mmHg 83%
    20:00 +6°C° 0.3 mm 5 mps 725 mmHg 84%
    21:00 +6°C° 0.1 mm 4 mps 725 mmHg 85%
    22:00 +5°C° 0.1 mm 4 mps 725 mmHg 86%
    23:00 +5°C° 0.1 mm 4 mps 725 mmHg 87%

    28 Septiembre, Viernes

    Tiempo Temperatura Precipitaciones Viento Presión Humedad
    00:00 +5°C° 0 mm 5 mps 725 mmHg 86%
    01:00 +3°C° 0 mm 5 mps 725 mmHg 86%
    02:00 +3°C° 0 mm 5 mps 725 mmHg 85%
    03:00 +3°C° 0 mm 5 mps 725 mmHg 84%
    04:00 +3°C° 0 mm 6 mps 725 mmHg 82%
    05:00 +3°C° 0 mm 6 mps 725 mmHg 80%
    06:00 +3°C° 0 mm 6 mps 725 mmHg 78%
    07:00 +3°C° 0 mm 7 mps 726 mmHg 75%
    08:00 +4°C° 0 mm 7 mps 726 mmHg 73%
    09:00 +4°C° 0 mm 7 mps 726 mmHg 69%
    10:00 +5°C° 0 mm 7 mps 726 mmHg 65%
    11:00 +5°C° 0 mm 7 mps 727 mmHg 61%
    12:00 +6°C° 0.1 mm 7 mps 727 mmHg 61%
    13:00 +6°C° 0.1 mm 7 mps 727 mmHg 61%
    14:00 +6°C° 0.1 mm 7 mps 727 mmHg 60%
    15:00 +5°C° 0.1 mm 6 mps 727 mmHg 63%
    16:00 +5°C° 0.1 mm 6 mps 727 mmHg 65%
    17:00 +4°C° 0.1 mm 6 mps 728 mmHg 68%
    18:00 +4°C° 0.1 mm 6 mps 728 mmHg 72%
    19:00 +4°C° 0.1 mm 6 mps 728 mmHg 76%
    20:00 +4°C° 0.1 mm 6 mps 729 mmHg 80%
    21:00 +4°C° 0.1 mm 6 mps 729 mmHg 81%
    22:00 +4°C° 0.1 mm 6 mps 729 mmHg 82%
    23:00 +4°C° 0.1 mm 6 mps 730 mmHg 83%
    Mostrar más